Flag for Turkey Weather past 2 weeks in Samsun, Turkey

Now
46 °F

Fog.


Feels Like: 42 °F
Forecast: 39 / 51 °F
Wind: 9 mph from Northwest

Location: Samsun / Carsamba

Current Time: Mar 1, 2015 at 3:42:19 AM

Latest Report: Mar 1, 2015 at 2:50 AM


Visibility: 3 mi

Pressure: 29.98 "Hg

Humidity: 100%

Dew point: 46 °F

Location of SamsunLocation

Historic Weather in Samsun — Graph

°F

Samsun temperature yesterday

Maximum temperature yesterday: 63 °F (at 9:50 AM)
Minimum temperature yesterday: 43 °F (at 12:50 AM)
Average temperature yesterday: 51 °F

Past Weeks' High & Low Weather Summary

 TemperatureHumidityPressure
High68 °F (Feb 26, 10:50 AM)100% (Feb 17, 8:50 AM)30.33 "Hg (Feb 17, 8:50 AM)
Low28 °F (Feb 18, 2:50 AM)20% (Feb 23, 11:50 AM)29.77 "Hg (Feb 28, 2:50 AM)
Average44 °F77%30.07 "Hg
* Reported Feb 14 1:50 AM — Mar 1 1:50 AM, Samsun, Weather by CustomWeather, © 2015

Note: Actual official high and low records may vary slightly from our data, if they occured in-between our weather recording intervals... More about our weather records

Advertising

Samsun weather history for previous 24 hours

 ConditionsComfort  
Time TempWeatherWind HumidityBarometerVisibility
1:50 AM
Sun, Mar 1
43 °FFog.5 mph100%29.95 "Hg1 mi
12:50 AM43 °FFog.No wind93%29.95 "Hg1 mi
11:50 PM
Sat, Feb 28
45 °FPartly cloudy.1 mph93%29.95 "Hg5 mi
10:50 PM46 °FPartly cloudy.3 mph93%29.92 "HgN/A
9:50 PM48 °FPartly cloudy.2 mph94%29.95 "HgN/A
8:50 PM50 °FPartly cloudy.6 mph88%29.92 "HgN/A
7:50 PM50 °FPartly cloudy.2 mph88%29.92 "HgN/A
6:50 PM50 °FPartly cloudy.3 mph88%29.95 "HgN/A
5:50 PM50 °FPartly cloudy.No wind88%29.92 "HgN/A
4:50 PM50 °FBroken clouds.1 mph88%29.92 "HgN/A
3:50 PM52 °FBroken clouds.2 mph82%29.89 "HgN/A
2:50 PM50 °FBroken clouds.6 mph88%29.86 "HgN/A
1:50 PM52 °FBroken clouds.12 mph82%29.86 "HgN/A
12:50 PM61 °FSprinkles. Partly sunny.16 mph52%29.83 "Hg5 mi
11:50 AM63 °FSprinkles. Partly sunny.13 mph45%29.83 "HgN/A
10:50 AM61 °FPartly sunny.9 mph48%29.83 "HgN/A
9:50 AM63 °FPartly sunny.15 mph42%29.80 "HgN/A
8:50 AM55 °FPartly sunny.6 mph59%29.80 "HgN/A
7:50 AM50 °FBroken clouds.5 mph76%29.80 "HgN/A
6:50 AM48 °FBroken clouds.3 mph76%29.80 "HgN/A
5:50 AM52 °FPartly cloudy.2 mph62%29.80 "HgN/A
4:50 AM50 °FPassing clouds.5 mph71%29.77 "HgN/A
3:50 AM48 °FPassing clouds.3 mph76%29.77 "Hg5 mi
Weather by CustomWeather, © 2015

See weather overviewHow to use our weather pages